Regional Weather Roundup
Issued by NWS Wakefield, VA

Home | Current Version | Previous Version | Text Only | Print | Product List | Glossary Off
Versions: 1 2 3 4 5 6 7 8 9 10 11 12 13 14 15 16 17 18 19 20 21 22 23 24 25 26 27 28 29 30 31 32 33 34 35 36 37 38 39 40 41

000
ASUS41 KAKQ 261310
RWRAKQ

REGIONAL WEATHER ROUNDUP
NATIONAL WEATHER SERVICE WAKEFIELD VA
800 AM EST FRI DEC 26 2014

Note: "fair" indicates few or no clouds below 12,000 feet with no
significant weather and/or obstructions to visibility. * = Denotes
station may not report precipitation (e.g., rain,snow,etc.),
thunder or fog.

VAZ042-051-052>054-056-261400-
NORTHERN VIRGINIA

CITY           SKY/WX    TMP DP  RH WIND       PRES   REMARKS
WASH NATIONAL  CLEAR     37  29  72 S5        30.33R
DULLES         CLEAR     27  25  92 CALM      30.31R
FORT BELVOIR   CLEAR     28  27  95 CALM      30.33R
QUANTICO       CLEAR     31  27  85 NW5       30.34R
FREDERICKSBRG* PTCLDY    29  29 100 CALM      30.32S
STAFFORD*      PTCLDY    25  25 100 CALM      30.37R
WARRENTON      CLEAR     25  25 100 CALM      30.31R
CULPEPER*      PTCLDY    25  23  93 CALM      30.32R
MANASSAS*      CLEAR     25  25 100 CALM      30.32R
LEESBURG*      CLEAR     30  30 100 CALM      30.31R
WINCHESTER     CLEAR     28  23  80 CALM      30.30R
FRONT ROYAL*   SUNNY     28  27  93 CALM      30.29R
LURAY*         SUNNY     27  27 100 CALM      30.29S
$$

VAZ048-049-060>072-079>083-261400-
CENTRAL AND SOUTH CENTRAL VIRGINIA

CITY           SKY/WX    TMP DP  RH WIND       PRES   REMARKS
RICHMOND       PTCLDY    34  29  82 CALM      30.33R
CHESTERFIELD*  SUNNY     27  16  63 CALM      30.34R
PETERSBURG*    CLEAR     28  27  95 CALM      30.34R
HANOVER        CLEAR     28  26  92 CALM      30.34R
TAPPAHANNOCK*  CLEAR     29  26  90 CALM      30.34R
QUINTON*       SUNNY     28  27  95 CALM      30.34R
CHARLOTTSVILLE CLEAR     29  27  92 NW5       30.29R
GORDONSVILLE*  SUNNY     24  23  95 CALM      30.30S
ORANGE*        CLEAR     27  27 100 CALM      30.32R
LOUISA*        PTCLDY    25  25 100 CALM      30.29S
BUMPASS*       SUNNY     27  25  95 CALM      30.31S
FARMVILLE*     CLEAR     27  27 100 CALM      30.31R
CREWE*         SUNNY     26  24  93 CALM      30.32R
FORT PICKETT*  SUNNY     28  28  97 CALM      30.32R
CHASE CITY*    SUNNY     30  30 100 CALM      30.32R
CLARKSVILLE*   SUNNY     28  28 100 CALM      30.33R
SOUTH HILL*    CLEAR     28  26  94 CALM      30.39R
LAWRENCEVILLE* SUNNY     29  29 100 CALM      30.32R
EMPORIA*       PTCLDY    28  28 100 CALM      30.35R
$$

VAZ088>098-261400-
SOUTHEAST VIRGINIA

CITY           SKY/WX    TMP DP  RH WIND       PRES   REMARKS
NORFOLK        CLEAR     41  37  86 CALM      30.32R
VIRGINIA BEACH PTCLDY    35  32  88 CALM      30.31R
NORFOLK NAVAL  PTCLDY    43  36  76 CALM      30.33R
WEST POINT*    CLEAR     31  29  91 CALM      30.35R
SALUDA*        FAIR      30  29  96 CALM      30.32R
NEWPORT NEWS   CLEAR     35  31  85 CALM      30.33R FOG
LANGLEY AFB    CLEAR     33  32  95 W2        30.33R
FORT EUSTIS    CLEAR     33  33 100 CALM      30.31R
WILLIAMSBURG*  CLEAR     34  34 100 CALM      30.34R
HR EXEC AP*    SUNNY     30  28  93 CALM      30.35R
FRANKLIN*      CLEAR     30 N/A N/A CALM      30.33R
WAKEFIELD      CLEAR     30  27  88 CALM      30.33R
$$

VAZ020-022-025-037-045-261400-
WEST CENTRAL AND SOUTHWEST VIRGINIA

CITY           SKY/WX    TMP DP  RH WIND       PRES   REMARKS
STAUNTON*      CLEAR     24  21  89 CALM      30.30S
WAYNESBORO*    SUNNY     26  24  93 CALM      30.28S
HOT SPRINGS VA PTCLDY    35  18  51 W14       30.20S
LYNCHBURG      CLEAR     24  24 100 CALM      30.31R
DANVILLE       PTCLDY    26  23  88 CALM      30.32R
SOUTH BOSTON*  SUNNY     26  24  93 CALM      30.34R
MARTINSVILLE   PTCLDY    23  23 100 CALM      30.33S
ROANOKE        PTCLDY    31  26  82 NW3       30.33R
BLACKSBURG     PTCLDY    24  23  96 CALM      30.32R
DUBLIN*        PTCLDY    27  27 100 CALM      30.31R
MARION*        CLEAR     28  25  89 CALM      30.31R
HILLSVILLE*    CLEAR     28  26  91 SW3       30.28R
RICHLANDS*     MOSUNNY   35  21  57 CALM      30.27R
WISE*          PTCLDY    30  28  93 S6        30.28R
ABINGDON*      PTCLDY    30  29  95 CALM      30.30S
$$

MDZ021>025-VAZ099-100-261400-
SOUTHERN MARYLAND AND THE DELMARVA PENINSULA

CITY           SKY/WX    TMP DP  RH WIND       PRES   REMARKS
PATUXENT RIVER PTCLDY    29  27  92 SW5       30.32R
BAY BRIDGE APT   N/A     36  32  87 SW3       30.31R
LEONARDTOWN    CLEAR     30  28  93 CALM      30.34R
DOVER          CLEAR     34  31  88 SW2       30.28R
GEORGETOWN     CLEAR     31  28  89 CALM      30.32R
EASTON         CLEAR     32  32 100 SW3       30.34R
CAMBRIDGE      CLEAR     32  32 100 CALM      30.31R
SALISBURY      CLEAR     31  27  85 CALM      30.32R
OCEAN CITY     CLEAR     30  28  92 W3        30.33R
WALLOPS ISLAND CLEAR     32  30  92 NW3       30.33R
ACCOMACK*      CLEAR     32  30  93 CALM      30.33R
$$

NCZ012>017-030>032-261400-
NORTH CENTRAL AND EASTERN NORTH CAROLINA

CITY           SKY/WX    TMP DP  RH WIND       PRES   REMARKS
ROANOKE RAPIDS SUNNY     30  28  93 CALM      30.33R
RALEIGH        MOCLDY    30  28  92 CALM      30.34R
ELIZABETH CITY CLEAR     39  34  82 W3        30.32R
AHOSKIE*       PTCLDY    30  29  96 CALM      30.34R
EDENTON*         N/A     32  32  99 CALM      30.33R
CURRITUCK*     CLEAR     36  35  96 W3        30.33R
KILL DEVIL HLS CLEAR     43  42  97 CALM      30.30S
MANTEO         CLEAR     36  36 100 CALM      30.32R
CAPE HATTERAS  CLEAR     46  43  89 N6        30.32R
TARBORO*       FOG       32  32  99 CALM      30.35R VSB 1/2
GOLDSBORO      FOG       33  32  98 W1        30.32R VSB<1/4
WASHINGTON     CLEAR     33  31  94 CALM      30.34R
GREENVILLE       N/A     32  32 100 CALM      30.34R FOG
NEW BERN       FOG       34  32  92 CALM      30.33S VSB<1/4
WILMINGTON     PTCLDY    37  36  96 CALM      30.33R
$$

VAZ048-261400-
ELSEWHERE

CITY           SKY/WX    TMP DP  RH WIND       PRES   REMARKS
HARRISBURG PA  CLEAR     28  25  88 CALM      30.29R
BALTIMORE      CLEAR     32  29  88 SW3       30.30R
ANNAPOLIS      CLEAR     33  30  88 CALM      30.31R
ANDREWS AFB    CLEAR     30  27  88 W3        30.31R
PHILADELPHIA   CLEAR     37  28  70 W8        30.30R
HENDERSON NC   CLEAR     30  29  95 CALM      30.33R
GREENSBORO     PTCLDY    28  26  92 SW5       30.30R
ROCKY MOUNT    CLEAR     32  30  92 CALM      30.33R
$$

VAZ100-261400-
MARINE

STATION/POSITION TIME  TEMP    WIND        PRES    WAVE   SWELL
                       AIR SEA DIR/SP/G            HT/PER HT/PER
                 (UTC) (F)     (DEG/KT/KT) (MB)    (FT/S) (FT/S)
CAPE MAY NJ      1300   42 45  320/  6/ 11 1025.4S
LEWES DE         1300   39 45  280/  5/  6 1025.8R
15NM E FENWICK I 1300   44 45              1025.8R   2/ 8
OCEAN-CITY-INLET 1300   37 46  300/  6/  7 1025.9S
WACHAPREAGUE VA  1300   36 48  300/  1/  2 1027.0R
THOMAS POINT MD  1300   39 42  250/  5/  6 1027.5R
GOOSES REEF MD   1300   41     VRB  6/  6  1025.7R   0
COVE POINT MD    1300   40     300/  4/  5 1026.4R
SOLOMONS ISLAND  1300      43                N/A
BISHOPS HEAD MD  1300   40 43  310/  4/  5 1026.1S
PINEY POINT MD   1300          300/  4/  4   N/A
POTOMAC MD       1300   42 43  300/  4/  6 1026.1R   0
CAMBRIDGE MD     1300   36 42  240/  3/  4 1026.3R
LEWISETTA VA     1300   35 44  260/  4/  5 1027.0R
RAPPAHANNOCK LGT 1300          180/  1/  1 1027.4R
STINGRAY PT      1300   43 44  300/  2/  4 1027.2R   0
YORK RVR RNG VA  1300   43     330/  2/  3 1026.2R
YORKTOWN VA      1300   38 46  260/  2/  2 1026.5S
JAMESTOWN VA     1300   40 45  360/  2/  4   N/A     0
DOMINION TERM VA 1300   43     310/  5/  6 1026.7R
KIPTOPEKE VA     1300      50   70/  4/  5   N/A
CHES BAY BRIDGE  1300   45 45   20/  4/  4 1026.0S
CAPE HENRY VA    1300   46      60/  4/  5 1025.3R
CHESAPEAKE LGHT  1200   47      50/  7/  8 1026.7R
WILLOUBY STN VA  1300   46      30/  4/  5 1027.1R
S CRANEY ISL VA  1300          300/  3/  3 1026.7R
CAPE HENRY BUOY  1300      48                N/A     2/ 8
1ST LANDING BUOY 1300   47 45   40/  4/  4 1026.2R   1/ 4
CAPE CHARLES BUO 1300      47                N/A     2/ 8   2/ 8
64NM E OF VA BCH 1300   51 52   30/  6/  8 1025.6R   2/ 9   2/ 9
DUCK PIER NC     1300   47 50     CALM     1025.6R
44100 DUCK FRF   1300      50                N/A     2/ 8
44056 DUCK FRF   1300      50                N/A     2/ 7
OREGON INLET NC  1300   49 54   CALM  /  1 1026.6R
HATTERAS NC      1300   50 56  350/  5/  6 1027.0R
DIAMOND SHLS NC  1300   57                 1026.5R   3/ 7
CAPE LOOKOUT NC  1200   49     360/  8/  9 1026.1R
$$



USA.gov is the U.S. government's official web portal to all federal, state and local government web resources and services.